Gwinn, MI

11:24 PM EDT on June 28, 2017 (GMT -0400)
Sawyer International

Weather History for KSAW - December, 2011

Change the Weather History Date:

Monday, December 26, 2011

  Actual Average (KESC) Record (KESC)
Temperature  
Mean Temperature 34 °F -  
Max Temperature 41 °F 22 °F 44 °F (2016)
Min Temperature 27 °F 7 °F -14 °F (1990)
Degree Days  
Heating Degree Days 31    
Moisture  
Dew Point 23 °F    
Average Humidity 66    
Maximum Humidity 80    
Minimum Humidity 49    
Precipitation  
Precipitation 0.00 in - - ()
Sea Level Pressure  
Sea Level Pressure 29.85 in    
Wind  
Wind Speed 13 mph (SW)    
Max Wind Speed 32 mph    
Max Gust Speed 38 mph    
Visibility 10 miles    
Events      
Averages and records for this station are not official NWS values.
T = Trace of Precipitation, MM = Missing Value Source: NWS Daily Summary

Daily Weather History Graph

Daily Weather History Graph

Search for Another Location

Airport or City:

Trip Planner

Search our weather history database for the weather conditions in past years. The results will help you decide how hot, cold, wet, or windy it might be!

Date:

Astronomy

Dec. 26, 2011 Rise Set
Actual Time 8:31 AM EST 5:08 PM EST
Civil Twilight 7:56 AM EST 5:43 PM EST
Nautical Twilight 7:18 AM EST 6:21 PM EST
Astronomical Twilight 6:42 AM EST 6:58 PM EST
Moon 9:45 AM EST (12/26) 7:43 PM EST (12/26)
Length of Visible Light 9h 46m
Length of Day
8h 36m
Waxing Crescent, 5% of the Moon is Illuminated
Dec 26
Waxing Crescent
Jan 1
First Quarter
Jan 9
Full
Jan 16
Last Quarter
Jan 23
New

Hourly Weather History & Observations

Time (EST) Temp. Windchill Dew Point Humidity Pressure Visibility Wind Dir Wind Speed Gust Speed Precip Events Conditions
12:16 AM 30.9 °F 26.2 °F 23.9 °F 75% 30.11 in 10.0 mi SW 4.6 mph - N/A   Overcast
12:37 AM 30.9 °F 22.8 °F 24.3 °F 76% 30.10 in 10.0 mi WSW 9.2 mph - N/A   Overcast
12:57 AM 31.3 °F 24.7 °F 24.1 °F 75% 30.10 in 10.0 mi WSW 6.9 mph - N/A   Overcast
1:17 AM 31.6 °F 23.7 °F 23.7 °F 73% 30.09 in 10.0 mi SW 9.2 mph - N/A   Overcast
1:37 AM 31.1 °F 22.4 °F 23.9 °F 75% 30.09 in 10.0 mi SW 10.4 mph - N/A   Overcast
1:57 AM 31.1 °F 23.1 °F 23.9 °F 75% 30.09 in 10.0 mi SW 9.2 mph - N/A   Overcast
2:17 AM 31.1 °F 20.9 °F 23.9 °F 75% 30.08 in 10.0 mi SW 13.8 mph - N/A   Overcast
2:37 AM 31.6 °F 21.6 °F 23.5 °F 72% 30.08 in 10.0 mi SW 13.8 mph 18.4 mph N/A   Overcast
2:57 AM 30.7 °F 20.0 °F 23.0 °F 73% 30.07 in 10.0 mi SW 15.0 mph - N/A   Mostly Cloudy
3:17 AM 30.0 °F 21.7 °F 22.6 °F 74% 30.07 in 10.0 mi SSW 9.2 mph - N/A   Clear
3:37 AM 29.3 °F 20.2 °F 22.5 °F 76% 30.06 in 10.0 mi SSW 10.4 mph - N/A   Clear
3:56 AM 29.7 °F 20.1 °F 22.6 °F 75% 30.05 in 10.0 mi SSW 11.5 mph - N/A   Clear
4:17 AM 28.2 °F 18.9 °F 21.9 °F 77% 30.05 in 10.0 mi SSW 10.4 mph - N/A   Clear
4:37 AM 27.9 °F 17.8 °F 21.9 °F 78% 30.04 in 10.0 mi SSW 11.5 mph - N/A   Clear
4:56 AM 28.4 °F 18.5 °F 21.2 °F 74% 30.03 in 10.0 mi SSW 11.5 mph - N/A   Scattered Clouds
5:17 AM 27.5 °F 16.8 °F 21.9 °F 80% 30.02 in 10.0 mi SSW 12.7 mph - N/A   Mostly Cloudy
5:37 AM 28.0 °F 17.0 °F 21.9 °F 78% 30.00 in 10.0 mi SSW 13.8 mph - N/A   Mostly Cloudy
5:56 AM 28.4 °F 16.2 °F 22.1 °F 77% 30.00 in 10.0 mi SSW 17.3 mph 20.7 mph N/A   Scattered Clouds
6:50 AM 28.4 °F 18.0 °F 23.0 °F 80% 29.98 in 10.0 mi SSW 12.7 mph - N/A   Clear
7:50 AM 28.4 °F 16.6 °F 23.0 °F 80% 29.94 in 10.0 mi SSW 16.1 mph - N/A   Clear
8:55 AM 28.4 °F 16.2 °F 21.2 °F 74% 29.93 in 10.0 mi SSW 17.3 mph 21.9 mph N/A   Clear
9:50 AM 30.2 °F 19.3 °F 23.0 °F 75% 29.91 in 10.0 mi SSW 15.0 mph - N/A   Clear
10:55 AM 33.8 °F 22.5 °F 23.0 °F 65% 29.87 in 10.0 mi SSW 19.6 mph 27.6 mph N/A   Clear
11:50 AM 35.6 °F 24.8 °F 21.2 °F 56% 29.82 in 10.0 mi SSW 19.6 mph 26.5 mph N/A   Clear
12:50 PM 33.8 °F 21.6 °F 21.2 °F 60% 29.82 in 10.0 mi SSW 23.0 mph 28.8 mph N/A   Clear
1:50 PM 35.6 °F 24.5 °F 21.2 °F 56% 29.69 in 10.0 mi South 20.7 mph 27.6 mph N/A   Clear
2:50 PM 37.4 °F 25.6 °F 21.2 °F 52% 29.64 in 10.0 mi South 26.5 mph 32.2 mph N/A   Clear
3:55 PM 39.2 °F 29.0 °F 21.2 °F 49% 29.59 in 10.0 mi SSW 21.9 mph 33.4 mph N/A   Clear
4:50 PM 39.2 °F 27.0 °F 21.2 °F 49% 29.58 in 10.0 mi SSW 32.2 mph 38.0 mph N/A   Clear
5:50 PM 37.4 °F 26.9 °F 21.2 °F 52% 29.60 in 10.0 mi SSW 20.7 mph 28.8 mph N/A   Clear
6:50 PM 37.4 °F 27.8 °F 23.0 °F 56% 29.61 in 10.0 mi SSW 17.3 mph 23.0 mph N/A   Clear
7:50 PM 37.4 °F 27.2 °F 23.0 °F 56% 29.58 in 10.0 mi SSW 19.6 mph 25.3 mph N/A   Clear
8:50 PM 39.2 °F 29.6 °F 21.2 °F 49% 29.60 in 10.0 mi SSW 19.6 mph - N/A   Scattered Clouds
9:50 PM 39.2 °F 30.5 °F 23.0 °F 52% 29.56 in 10.0 mi WSW 16.1 mph - N/A   Overcast
10:16 PM 41.0 °F 32.2 °F 23.9 °F 51% 29.55 in 10.0 mi SW 18.4 mph - N/A   Mostly Cloudy
10:37 PM 41.0 °F 32.5 °F 24.6 °F 52% 29.55 in 10.0 mi WSW 17.3 mph 21.9 mph N/A   Scattered Clouds
10:57 PM 40.6 °F 32.7 °F 24.8 °F 53% 29.54 in 10.0 mi SW 15.0 mph 23.0 mph N/A   Clear
11:16 PM 40.1 °F 32.4 °F 25.0 °F 55% 29.53 in 10.0 mi SW 13.8 mph - N/A   Clear
11:37 PM 39.4 °F 31.4 °F 25.0 °F 56% 29.52 in 10.0 mi SW 13.8 mph - N/A   Clear
11:57 PM 39.2 °F 31.6 °F 24.8 °F 56% 29.52 in 10.0 mi SSW 12.7 mph - N/A   Clear